Printer-friendly version

IAU Minor Planet Center

Minor Planet Center

(70) Panopaea

Orbital Elements

The following orbital elements are taken from MPO 2601
   (70) Panopaea
Epoch 2005 Jan. 30.0 TT = JDT 2453400.5                 Williams
M 298.33432              (2000.0)            P               Q
n   0.23291449     Peri.  255.75818     +0.53823590     +0.82955962
a   2.6162047      Node    47.80547     -0.67492463     +0.52998060
e   0.1810985      Incl.   11.58414     -0.50475625     +0.17593009
P   4.23           H    8.11          G   0.14           U   1
From 276 observations at 43 oppositions, 1866-2000, mean residual 0".80.
An explanation of the orbital elements is available.

These orbital elements are also available in forms suitable for loading into a number of popular planetarium-type software programs.


Ephemeris

The following ephemeris is at intervals of five days. A daily ephemeris covering the same time interval is also available.

Personalized ephemerides for this object (and others) can be generated using the MPES.

Date    TT    R. A. (2000) Decl.     Delta      r     Elong.  Phase     V
 
2005 04 21    17 33.67   -28 04.4    1.573    2.317   126.6    20.4    11.9
2005 04 26    17 34.36   -28 39.9    1.518    2.309   131.2    19.1    11.8
2005 05 01    17 34.22   -29 16.5    1.467    2.300   136.0    17.7    11.7
2005 05 06    17 33.21   -29 53.9    1.420    2.292   140.9    16.1    11.6
2005 05 11    17 31.32   -30 31.8    1.377    2.284   145.9    14.4    11.4
2005 05 16    17 28.57   -31 09.4    1.339    2.277   150.9    12.5    11.3
2005 05 21    17 25.00   -31 46.2    1.307    2.269   156.0    10.5    11.1
2005 05 26    17 20.71   -32 21.5    1.280    2.261   160.9     8.4    11.0
2005 05 31    17 15.80   -32 54.4    1.259    2.254   165.3     6.6    10.9
2005 06 05    17 10.43   -33 24.1    1.244    2.247   168.4     5.2    10.8
2005 06 10    17 04.78   -33 50.0    1.235    2.240   169.0     5.0    10.7
2005 06 15    16 59.07   -34 11.8    1.232    2.233   166.7     6.0    10.8
2005 06 20    16 53.54   -34 29.4    1.236    2.227   162.7     7.8    10.9
2005 06 25    16 48.38   -34 42.8    1.245    2.220   158.0     9.9    11.0
2005 06 30    16 43.77   -34 52.4    1.260    2.214   153.0    12.0    11.1
2005 07 05    16 39.88   -34 58.7    1.280    2.208   147.9    14.2    11.2
2005 07 10    16 36.83   -35 02.4    1.305    2.203   142.9    16.2    11.3
2005 07 15    16 34.71   -35 04.1    1.334    2.197   138.0    18.0    11.4
2005 07 20    16 33.58   -35 04.5    1.367    2.192   133.2    19.7    11.5
2005 07 25    16 33.43   -35 04.1    1.404    2.187   128.7    21.3    11.6
2005 07 30    16 34.26   -35 03.3    1.443    2.182   124.2    22.6    11.7
2005 08 04    16 36.04   -35 02.4    1.485    2.178   120.0    23.8    11.8
2005 08 09    16 38.75   -35 01.5    1.530    2.173   115.9    24.8    11.9

Back to Bright Minor Planets

Astronomical Headlines Index

MPC


Valid HTML 4.01!